Location: Unspecified
(49.2170°N, 0.0000°E)
Time: 13:20:38
(UTC+00:00)

Vanguard 3 - Pass Details

Date: 24 January 2021
Orbit: 508 x 3261 km, 33.3° (Epoch: 28 February)

Event Time Altitude Azimuth Distance (km) Brightness Sun altitude
Rises 06:18:02 0° 251° (WSW) 4,181 - -13.4°
Exits shadow 06:19:44 - 246° (WSW) 3,751 10.1 -13.2°
Reaches altitude 10° 06:20:43 10° 242° (WSW) 3,528 10.0 -13.0°
Maximum altitude 06:29:04 35° 181° (S) 2,924 10.1 -11.7°
Drops below altitude 10° 06:42:09 10° 125° (SE) 5,558 12.8 -9.6°
Sets 06:47:45 0° 118° (ESE) 6,894 14.0 -8.8°
